Skip to main content.
Our real time weather data display below is updated continuously via our 24/7 live data feed.
 TIME   TEMPERATURE   WINDSPEED   DIRECTION   HUMIDITY   BAROMETER   RAINFALL 
8:25 17.0°C (62.6°F) 22.2 kmh (13.8 mph) E 82% 1011.9hPa (29.88 inHg) 0.8mm (0.03 in.)
7:25 17.0°C (62.6 °F) 20.4 kmh (12.7 mph) ENE 82% 1011.9hPa (29.88 inHg) 0.8mm (0.03 in.)
6:25 17.0°C (62.6 °F) 13.0 kmh (8.1 mph) E 82% 1011.9hPa (29.88 inHg) 0.8mm (0.03 in.)
5:25 17.0°C (62.6 °F) 16.7 kmh (10.4 mph) ENE 82% 1011.9hPa (29.88 inHg) 0.8mm (0.03 in.)
4:25 17.0°C (62.6 °F) 14.8 kmh (9.2 mph) ENE 82% 1011.9hPa (29.88 inHg) 0.8mm (0.03 in.)
3:25 17.0°C (62.6 °F) 18.5 kmh (11.5 mph) ENE 88% 1012.9hPa (29.91 inHg) 0.8mm (0.03 in.)
2:25 17.0°C (62.6 °F) 16.7 kmh (10.4 mph) E 82% 1012.9hPa (29.91 inHg) 0.8mm (0.03 in.)
1:25 17.0°C (62.6 °F) 9.3 kmh (5.8 mph) E 82% 1012.9hPa (29.91 inHg) 0.8mm (0.03 in.)
12:25 17.0°C (62.6 °F) 9.3 kmh (5.8 mph) ENE 77% 1012.9hPa (29.91 inHg) 0.8mm (0.03 in.)
11:25 17.0°C (62.6 °F) 11.1 kmh (6.9 mph) ENE 82% 1013.9hPa (29.94 inHg) 0.8mm (0.03 in.)
10:25 17.0°C (62.6 °F) 9.3 kmh (5.8 mph) E 82% 1013.9hPa (29.94 inHg) 0.8mm (0.03 in.)
9:25 16.0°C (60.8 °F) 9.3 kmh (5.8 mph) ENE 87% 1013.9hPa (29.94 inHg) 0.8mm (0.03 in.)
8:25 16.0°C (60.8 °F) 9.3 kmh (5.8 mph) E 87% 1013.9hPa (29.94 inHg) 0.8mm (0.03 in.)
7:16 16.0°C (60.8 °F) 7.4 kmh (4.6 mph) N 87% 1013.9hPa (29.94 inHg) 0.8mm (0.03 in.)
6:16 17.0°C (62.6 °F) 11.1 kmh (6.9 mph) N 88% 1013.9hPa (29.94 inHg) 0.8mm (0.03 in.)
4:48 17.0°C (62.6 °F) 13.0 kmh (8.1 mph) N 88% 1013.9hPa (29.94 inHg) 0.8mm (0.03 in.)
3:19 17.0°C (62.6 °F) 13.0 kmh (8.1 mph) N 88% 1013.9hPa (29.94 inHg) 0.8mm (0.03 in.)
2:18 16.0°C (60.8 °F) 16.7 kmh (10.4 mph) N 93% 1014.9hPa (29.97 inHg) 0.8mm (0.03 in.)
1:18 17.0°C (62.6 °F) 14.8 kmh (9.2 mph) N 88% 1014.9hPa (29.97 inHg) 0.8mm (0.03 in.)
12:18 17.0°C (62.6 °F) 16.7 kmh (10.4 mph) N 82% 1015.9hPa (30.00 inHg) 0.8mm (0.03 in.)
11:17 18.0°C (64.4 °F) 7.4 kmh (4.6 mph) N 88% 1016.9hPa (30.03 inHg) 0.0mm (0.00 in.)
10:09 19.0°C (66.2 °F) 5.6 kmh (3.5 mph) N 82% 1015.9hPa (30.00 inHg) 0.0mm (0.00 in.)
8:42 19.0°C (66.2 °F) 3.7 kmh (2.3 mph) N 77% 1016.9hPa (30.03 inHg) 0.0mm (0.00 in.)
7:42 18.0°C (64.4 °F) 0.0 kmh (0.0 mph) N 77% 1016.9hPa (30.03 inHg) 0.0mm (0.00 in.)